Location: Recife
(8.0585°S, 34.8848°W)
Time: 11:54:28
(UTC-03:00)

Altair - All Passes

Search period start: 14 April 2026 00:00
Search period end: 24 April 2026 00:00
Orbit: 1502 x 1682 km, 47.2° (Epoch: 14 April)

Date Brightness Start Highest point End Pass type
(mag) Time Alt. Az. Time Alt. Az. Time Alt. Az.
14 Apr - 06:22:24 10° SSE 06:24:28 11° SE 06:26:31 10° SE daylight
14 Apr - 08:20:56 10° SSW 08:30:41 54° SE 08:40:30 10° ENE daylight
14 Apr - 10:26:28 10° WSW 10:35:18 35° NW 10:44:11 10° N daylight
14 Apr - 21:15:58 10° NNW 21:24:49 53° NE 21:33:40 10° SE visible
14 Apr - 23:21:29 10° WNW 23:29:24 33° SW 23:37:29 10° SSE night (unlit)
15 Apr - 07:55:50 10° SSW 08:05:23 49° SE 08:15:03 10° ENE daylight
15 Apr - 10:00:55 10° WSW 10:10:03 39° NW 10:19:14 10° NNE daylight
15 Apr - 20:50:56 10° NNW 20:59:38 47° NE 21:08:18 10° ESE visible
15 Apr - 22:55:56 10° WNW 23:04:08 37° SW 23:12:29 10° SSE night (unlit)
16 Apr - 07:30:45 10° SSW 07:40:05 44° SE 07:49:31 10° ENE daylight
16 Apr - 09:35:25 10° WSW 09:44:47 44° NW 09:54:14 10° NNE daylight
16 Apr - 20:25:56 10° NNW 20:34:25 41° NE 20:42:52 10° ESE visible
16 Apr - 22:30:26 10° WNW 22:38:53 41° SW 22:47:26 10° SSE night (unlit)
17 Apr - 07:05:41 10° SSW 07:14:47 39° SE 07:23:58 10° ENE daylight
17 Apr - 09:09:58 10° WSW 09:19:32 50° NW 09:29:12 10° NNE daylight
17 Apr - 20:00:59 10° NNW 20:09:13 37° NE 20:17:24 10° ESE visible
17 Apr - 22:04:58 10° WNW 22:13:38 46° SW 22:22:22 10° SSE visible
18 Apr - 06:40:40 10° SSW 06:49:28 35° SE 06:58:22 10° ENE daylight
18 Apr - 08:44:34 10° SW 08:54:16 55° NW 09:04:07 10° NNE daylight
18 Apr - 19:36:04 10° N 19:44:01 32° NE 19:51:52 10° ESE visible
18 Apr - 21:39:33 10° WNW 21:48:24 52° SW 21:57:17 10° SSE visible
19 Apr - 06:15:41 10° SSW 06:24:07 31° SE 06:32:42 10° ENE daylight
19 Apr - 08:19:11 10° SW 08:29:01 62° NW 08:38:59 10° NNE daylight
19 Apr - 19:11:13 10° N 19:18:48 28° NE 19:26:18 10° ESE visible
19 Apr - 21:14:11 10° NW 21:23:10 58° SW 21:32:11 10° SSE visible
19 Apr - 23:27:11 10° SW 23:29:01 11° SW 23:30:51 10° SSW night (unlit)
20 Apr - 05:50:43 10° SSW 05:58:47 28° SE 06:06:59 10° E daylight
20 Apr - 07:53:51 10° SW 08:03:46 69° NW 08:13:50 10° NNE daylight
20 Apr - 10:05:30 10° WNW 10:08:36 12° NW 10:11:43 10° NNW daylight
20 Apr - 18:46:25 10° N 18:53:35 25° NE 19:00:38 10° ESE visible
20 Apr - 20:48:51 10° NW 20:57:57 65° SW 21:07:04 10° SSE visible
20 Apr - 23:00:10 10° WSW 23:03:35 12° SW 23:07:02 10° SSW night (unlit)
21 Apr - 05:25:49 10° S 05:33:27 25° SE 05:41:11 10° E daylight
21 Apr - 07:28:34 10° SW 07:38:30 77° NW 07:48:38 10° NE daylight
21 Apr - 09:38:40 10° WNW 09:43:16 14° NW 09:47:55 10° NNW daylight
21 Apr - 18:21:41 10° N 18:28:21 22° NE 18:34:55 10° E visible
21 Apr - 20:23:32 10° NW 20:32:44 73° SW 20:41:55 10° SE visible
21 Apr - 22:33:44 10° WSW 22:38:11 14° SW 22:42:39 10° S night (unlit)
22 Apr - 05:00:57 10° S 05:08:05 22° SE 05:15:18 10° E visible
22 Apr - 07:03:18 10° SW 07:13:15 84° NW 07:23:25 10° NE daylight
22 Apr - 09:12:20 10° W 09:17:58 16° NW 09:23:39 10° NNW daylight
22 Apr - 17:57:03 10° N 18:03:07 19° NE 18:09:04 10° E visible
22 Apr - 19:58:15 10° NW 20:07:32 81° SW 20:16:44 10° SE visible
22 Apr - 22:07:33 10° WSW 22:12:47 16° SW 22:18:04 10° S visible
23 Apr - 04:36:08 10° S 04:42:42 20° SE 04:49:20 10° E visible
23 Apr - 06:38:04 10° SW 06:48:00 88° SE 06:58:10 10° NE daylight
23 Apr - 08:46:14 10° W 08:52:39 19° NW 08:59:10 10° N daylight
23 Apr - 17:32:33 10° NNE 17:37:51 16° NE 17:43:04 10° E visible
23 Apr - 19:33:00 10° NW 19:42:20 90° SW 19:51:33 10° SE visible
23 Apr - 21:41:33 10° W 21:47:25 18° SW 21:53:22 10° S visible
